OPTUS 10

Last updated on Tue Oct 15 2024 00:02:40 GMT+0000 (Coordinated Universal Time)

1 40146U 14054A 24288.54979696 -.00000149 00000+0 00000+0 0 9991 2 40146 0.1155 19.5470 0003785 140.4400 217.5427 1.00270304 36904
UTC large
Height (km)
Speed (km/s)
/
Latitude / Longitude
Inclination (degrees)
Orbital Period (minutes)
Azimuth
Elevation
Range (km)
Doppler Factor

Next 0 passes for location: London (51.5072 / 0.1276)

Sorry there are no passes over London.